China Lake, CA

2:19 PM PDT on March 26, 2017 (GMT -0700)
China Lake NAWS

Weather History for KNID - February, 2012

Change the Weather History Date:

Thursday, February 16, 2012

  Actual Average Record
Temperature  
Mean Temperature 53 °F -  
Max Temperature 63 °F 59 °F 78 °F (2007)
Min Temperature 37 °F 37 °F 25 °F (2006)
Degree Days  
Heating Degree Days 12    
Growing Degree Days 3 (Base 50)    
Moisture  
Dew Point 17 °F    
Average Humidity 27    
Maximum Humidity 51    
Minimum Humidity 15    
Precipitation  
Precipitation 0.00 in - - ()
Sea Level Pressure  
Sea Level Pressure 30.14 in    
Wind  
Wind Speed 16 mph (NNW)    
Max Wind Speed 25 mph    
Max Gust Speed 38 mph    
Visibility 10 miles    
Events      
Averages and records for this station are not official NWS values.
T = Trace of Precipitation, MM = Missing Value Source: NWS Daily Summary

Daily Weather History Graph

Daily Weather History Graph

Search for Another Location

Airport or City:

Trip Planner

Search our weather history database for the weather conditions in past years. The results will help you decide how hot, cold, wet, or windy it might be!

Date:

Astronomy

Feb. 16, 2012 Rise Set
Actual Time 6:36 AM PST 5:33 PM PST
Civil Twilight 6:10 AM PST 5:59 PM PST
Nautical Twilight 5:40 AM PST 6:29 PM PST
Astronomical Twilight 5:11 AM PST 6:58 PM PST
Moon 2:30 AM PST (2/16) 12:36 PM PST (2/16)
Length of Visible Light 11h 48m
Length of Day
10h 56m
Waning Crescent, 27% of the Moon is Illuminated
Feb 16
Waning Crescent
Feb 21
New
Feb 29
First Quarter
Mar 8
Full
Mar 14
Last Quarter

Hourly Weather History & Observations

Time (PST) Temp. Windchill Dew Point Humidity Pressure Visibility Wind Dir Wind Speed Gust Speed Precip Events Conditions
12:56 AM 45.0 °F 38.5 °F 21.0 °F 39% 30.08 in 10.0 mi NNW 13.8 mph - N/A   Clear
1:56 AM 45.0 °F 36.2 °F 25.0 °F 46% 30.09 in 10.0 mi North 24.2 mph 36.8 mph N/A   Partly Cloudy
2:56 AM 45.0 °F 38.2 °F 21.0 °F 39% 30.09 in 10.0 mi NW 15.0 mph - N/A   Overcast
3:56 AM 43.0 °F 36.8 °F 26.1 °F 51% 30.12 in 10.0 mi NNW 11.5 mph - N/A   Partly Cloudy
4:56 AM 45.0 °F 39.7 °F 21.0 °F 39% 30.11 in 10.0 mi NW 10.4 mph 19.6 mph N/A   Mostly Cloudy
5:56 AM 46.0 °F 39.0 °F 19.9 °F 35% 30.12 in 10.0 mi NW 17.3 mph 28.8 mph N/A   Mostly Cloudy
6:56 AM 46.0 °F 38.5 °F 19.0 °F 34% 30.14 in 10.0 mi NW 19.6 mph 27.6 mph N/A   Scattered Clouds
7:56 AM 48.0 °F - 19.0 °F 32% 30.17 in 10.0 mi WNW 20.7 mph 34.5 mph N/A   Mostly Cloudy
8:56 AM 52.0 °F - 19.9 °F 28% 30.17 in 10.0 mi NNW 25.3 mph 38.0 mph N/A   Scattered Clouds
9:56 AM 57.0 °F - 21.0 °F 25% 30.17 in 10.0 mi NNW 20.7 mph - N/A   Scattered Clouds
10:56 AM 59.0 °F - 21.9 °F 24% 30.21 in 10.0 mi NNW 20.7 mph 32.2 mph N/A   Partly Cloudy
11:56 AM 60.1 °F - 19.9 °F 21% 30.14 in 10.0 mi NNW 24.2 mph 32.2 mph N/A   Partly Cloudy
12:56 PM 61.0 °F - 18.0 °F 19% 30.14 in 10.0 mi North 25.3 mph 34.5 mph N/A   Partly Cloudy
1:56 PM 63.0 °F - 17.1 °F 17% 30.12 in 10.0 mi NNW 24.2 mph 33.4 mph N/A   Partly Cloudy
2:56 PM 63.0 °F - 15.1 °F 16% 30.12 in 10.0 mi North 19.6 mph 28.8 mph N/A   Clear
3:56 PM 63.0 °F - 14.0 °F 15% 30.11 in 10.0 mi North 17.3 mph - N/A   Clear
4:56 PM 61.0 °F - 12.9 °F 15% 30.11 in 10.0 mi North 15.0 mph 25.3 mph N/A   Clear
5:56 PM 57.0 °F - 12.9 °F 18% 30.13 in 10.0 mi North 12.7 mph 25.3 mph N/A   Clear
6:56 PM 55.9 °F - 12.9 °F 18% 30.14 in 10.0 mi NNW 11.5 mph - N/A   Clear
7:56 PM 53.1 °F - 12.0 °F 20% 30.15 in 10.0 mi NNW 5.8 mph - N/A   Clear
8:56 PM 52.0 °F - 10.9 °F 19% 30.16 in 10.0 mi NNW 3.5 mph - N/A   Clear
9:56 PM 48.0 °F - 10.9 °F 22% 30.17 in 10.0 mi Calm Calm - N/A   Clear
10:56 PM 48.9 °F - 10.9 °F 22% 30.18 in 10.0 mi NW 8.1 mph - N/A   Clear
11:56 PM 37.0 °F 31.6 °F 10.9 °F 34% 30.20 in 10.0 mi SSW 6.9 mph - N/A   Clear